AirNav   ATP
 
 660 users online  

M13 Poplarville-Pearl River County Airport
Poplarville, Mississippi, USA

GOING TO POPLARVILLE?


FAA INFORMATION EFFECTIVE 11 OCTOBER 2018

Location

FAA Identifier: M13
Lat/Long: 30-47-11.6900N / 089-30-16.3300W
30-47.194833N / 089-30.272167W
30.7865806 / -89.5045361
(estimated)
Elevation: 320 ft. / 97.5 m (surveyed)
Variation: 02W (2020)
From city: 3 miles SE of POPLARVILLE, MS
Time zone: UTC -5 (UTC -6 during Standard Time)
Zip code: 39470

Airport Operations

Airport use: Open to the public
Activation date: 03/1976
Control tower: no
ARTCC: HOUSTON CENTER
FSS: GREENWOOD FLIGHT SERVICE STATION
NOTAMs facility: GWO (NOTAM-D service available)
Attendance: UNATNDD
Wind indicator: lighted
Segmented circle: yes
Lights: DUSK-2100. MIRL RY 16/34 & PAPI RYS 16 AND 34 OPER DUSK-2100; AFT 2100 ACTVT - CTAF.
Beacon: white-green (lighted land airport)
Operates sunset to sunrise.

Airport Communications

CTAF: 122.9
GULFPORT APPROACH: 124.6
GULFPORT DEPARTURE: 124.6
WX AWOS-3PT at BXA (19 nm W): 118.025 (985-732-6224)
WX AWOS-3PT at MJD (19 nm SW): 119.075 (601-798-4136)
  • APCH/DEP SVC PRVVD BY GULFPORT APCH (GPT) 124.6/351.1. WHEN GPT APCH CLSD SVC PRVVD BY HOUSTON ARTCC (ZHU) ON 126.8/327.8 (HATTIESBURG RCAG).

Nearby radio navigation aids

VOR radial/distance  VOR name  Freq  Var
PCUr036/17.9PICAYUNE VOR/DME112.2005E
GPTr314/31.7GULFPORT VORTAC109.0002E
LBYr188/38.9EATON VORTAC110.6005E

 
NDB name  Hdg/Dist  Freq  Var  ID
BOGALUSA107/19.335300WGVB --. ...- -...

Airport Services

Fuel available: 100LL
FUEL 24 HR SELF SVC WITH CREDIT CARD.
Parking: tiedowns
Airframe service: MAJOR
Powerplant service: MAJOR
Bottled oxygen: NONE
Bulk oxygen: NONE

Runway Information

Runway 16/34

Dimensions: 4000 x 100 ft. / 1219 x 30 m
Surface: asphalt, in good condition
Weight bearing capacity: 
Single wheel: 25.2
Runway edge lights: medium intensity
Gradient: S
RUNWAY 16  RUNWAY 34
Latitude: 30-47.510000N30-46.879167N
Longitude: 089-30.384000W089-30.160500W
Elevation: 302.6 ft.318.9 ft.
Gradient: 0.4% UP0.4%
Traffic pattern: leftleft
Runway heading: 165 magnetic, 163 true345 magnetic, 343 true
Markings: basic, in good conditionbasic, in good condition
Visual slope indicator: 2-light PAPI on left (3.00 degrees glide path)2-light PAPI on left (3.00 degrees glide path)
Touchdown point: yes, no lightsyes, no lights
Obstructions: 55 ft. trees, 1650 ft. from runway, 26:1 slope to clearnone

Airport Ownership and Management from official FAA records

Ownership: Publicly-owned
Owner: CITY OF POPLARVILLE
CITY HALL, 101 N MAIN ST
POPLARVILLE, MS 39470
Phone 601-795-8161
CITY OF POPLARVILLE & PEARL RIVER COUNTY.
Manager: BRADLEY HOLLIDAY
PO BOX 901
POPLARVILLE, MS 39470
Phone 601-550-3059

Airport Operational Statistics

Aircraft based on the field: 13
Single engine airplanes: 10
Helicopters: 1
Ultralights: 1
Military aircraft: 1
    
Aircraft operations: avg 21/day *
71% local general aviation
29% transient general aviation
<1% military
* for 12-month period ending 09 May 2018

Additional Remarks

RY 34 TERRAIN DROPS OFF ABRUPTLY AT 200' FROM THR.
335' AGL ANTENNA TWR ON LEFT DOWNWIND PATTERN TO RWY 16.
ULTRALIGHT ACTIVITY ON & INVOF ARPT.

Instrument Procedures

NOTE: All procedures below are presented as PDF files. If you need a reader for these files, you should download the free Adobe Reader.

NOT FOR NAVIGATION. Please procure official charts for flight.
FAA instrument procedures published for use from 11 October 2018 at 0901Z to 8 November 2018 at 0900Z.

 
IAPs - Instrument Approach Procedures
RNAV (GPS)-A   download (161KB)
RNAV (GPS)-B   download (160KB)
NOTE: Special Take-Off Minimums/Departure Procedures apply   download (171KB)

Other nearby airports with instrument procedures:

KBXA - George R Carr Memorial Air Field (19 nm W)
KMJD - Picayune Municipal Airport (19 nm SW)
KHSA - Stennis International Airport (25 nm S)
KASD - Slidell Airport (31 nm SW)
KHBG - Hattiesburg Bobby L Chain Municipal Airport (31 nm NE)
 
Loc | Ops | Rwys | IFR | FBO | Links
Com | Nav | Svcs | Stats | Notes


 
Area around M13 (Poplarville-Pearl River County Airport)
 
Road maps at: MapQuest Bing Google
 
Aerial photo
WARNING: Photo may not be current or correct
Aerial photo of M13 (Poplarville-Pearl River County Airport)
Photo by Michael Lott
Photo taken 25-Oct-2008
looking south.

Do you have a better or more recent aerial photo of Poplarville-Pearl River County Airport that you would like to share? If so, please send us your photo.

 
Sectional chart

 
Airport distance calculator
Flying to Poplarville-Pearl River County Airport? Find the distance to fly.

From to M13

Sunrise and sunset
Times for 15-Oct-2018
 Local
(UTC-5)
 Zulu
(UTC)
Morning civil twilight06:3711:37
Sunrise07:0212:02
Sunset18:2623:26
Evening civil twilight18:5023:50

Current date and time
Zulu (UTC)  15-Oct-2018 11:34:08
Local (UTC-5)  15-Oct-2018 06:34:08
 
METAR
KBXA 
19nm W 
151115Z AUTO 00000KT 10SM SCT041 19/17 A3003 RMK AO2 T01860170
KHSA 
25nm S 
150150Z 12004KT 10SM CLR 24/21 A3001
KGPT 
31nm SE 
151053Z 17003KT 10SM CLR 25/23 A3002 RMK AO2 SLP163 T02500228
KHBG 
32nm NE 
151114Z AUTO 00000KT 10SM FEW002 18/17 A3005 RMK AO2 T01830172
K0R0 
34nm NW 
151115Z AUTO 00000KT 10SM CLR 17/17 A3007 RMK AO2
KASD 
35nm SW 
151053Z AUTO 00000KT 10SM CLR 20/18 A3000 RMK AO2 SLP160 T02000183
TAF
KGPT 
31nm SE 
150520Z 1506/1606 14008KT P6SM SKC FM151200 15005KT P6SM SCT020 BKN090 FM151600 15006KT P6SM SCT025 BKN030 FM151700 15007KT P6SM SCT025 BKN050 PROB30 1518/1523 4SM -TSRA BKN025CB FM152300 14006KT P6SM SCT025 BKN060
KHBG 
32nm NE 
151006Z 1510/1606 15003KT P6SM SCT025 FM151200 00000KT 6SM BR BKN015 FM151500 VRB03KT P6SM VCSH BKN025 FM151800 29005KT P6SM VCTS BKN035CB FM160300 08003KT P6SM BKN015
NOTAMs
Click for the latest NOTAMs
NOTAMs are issued by the DoD/FAA and will open in a separate window not controlled by AirNav.

 

 
 

FBO, Fuel Providers, and Aircraft Ground Support

  
 Business Name 
 
 Contact 
 
 Services / Description 
 
Fuel Prices
 
Comments
  
City of Poplarville 601-795-9371
no information available

If you are affiliated with City of Poplarville and would like to show here your services, contact info, web link, logo, and more, click here
100LL
SS $4.10 
 Updated 30-Jan-2018
 
   1 read write
SS=Self service
Update Fuel Prices
 

Would you like to see your business listed on this page?

 If your business provides an interesting product or service to pilots, flight crews, aircraft, or users of the Poplarville-Pearl River County Airport, you should consider listing it here.  To start the listing process, click on the button below
 
Add a business
 

Other Pages about Poplarville-Pearl River County Airport

Update a link
 
Copyright © AirNav, LLC. All rights reserved. Privacy Policy  Contact